Vancouver Int'l Airport, British Columbia

Past 24 Hour Conditions

Date / Time
(PDT)
Conditions Temp
(°C)
Humidity
(%)
Dew Point
(°C)
Wind
(km/h)
Pressure
(kPa)
Visibility
(km)
31 October 2014
22:00 Mostly Cloudy 10   94 9 E 10 101.2 19
21:00 Mostly Cloudy 11 92 9 E 16 101.2 24
20:00 Mostly Cloudy 10   94 10 ENE 10 101.1 24
19:00 Mostly Cloudy 10   94 10 ESE 10 101.1 24
18:00 Mostly Cloudy 11 92 9 SE 12 101.1 24
17:00 Mostly Cloudy 11 93 10 SSE 3 101.0 32
16:00 Mostly Cloudy 11 93 10 SSW 7 101.0 32
15:00 Mostly Cloudy 11 94 10 SW 7 101.0 32
14:00 Light Rain 11 96 11 NW 4 100.9 24
13:00 Light Rain 11 97 10 W 8 100.9 19
12:00 Light Rain 10   97 10 W 23 100.8 16
11:00 Light Rain 11 95 10 SE 8 100.8 19
10:00 Light Rain 11 94 10 calm 100.7 24
9:00 Light Rain 11 95 10 W 6 100.7 16
8:00 Light Rain 10   97 10 NNW 3 100.7 19
7:00 Light Rain 10   98 10 calm 100.6 24
6:00 Mostly Cloudy 10   97 10 calm 100.7 19
5:00 Mostly Cloudy 11 97 10 ENE 5 100.7 24
4:00 Mostly Cloudy 11 97 10 ENE 9 100.7 13
3:00 Mostly Cloudy 11 97 10 E 12 100.8 19
2:00 Mostly Cloudy 11 97 10 E 12 100.8 24
1:00 Mostly Cloudy 11 97 10 E 14 100.8 24
00:00 Mostly Cloudy 11 97 11 E 12 100.8 24
30 October 2014
23:00 Mostly Cloudy 12   94 11 ESE 12 100.8 19
22:00 Light Rain 12   95 11 SSE 13 100.8 16
N/A Not available
↑ Highest temperature
↓ Lowest temperature

If you require additional historical weather information, please visit Climate Data Online.

Date modified: